Simultaneous Nadir Overpasses (SNOs) Predictions

Prediction of SNOs between NOAA-19 and TERRA Satellite Orbit:

Table of predicted SNOs for the next 14.0 days since TLE Epoch: 9/28/2019
Index Date (NOAA-19) Time (NOAA-19) Lat,Lon (NOAA-19) SZA (NOAA-19 ) Date (TERRA) Time (TERRA) Lat,Lon (TERRA) SZA (TERRA ) Distance(km) Time Diff (sec)
1 09/29/2019 05:08:13 78.82, 126.61 82.20 09/29/2019 05:09:06 78.83, 126.75 82.24 3.01 53
2 09/29/2019 05:59:11 -78.78, -65.84 97.80 09/29/2019 05:58:34 -78.79, -65.83 97.81 0.74 37
3 10/01/2019 10:41:39 -78.96,-137.72 96.88 10/01/2019 10:42:51 -78.81,-136.78 96.91 26.20 72
4 10/01/2019 11:32:35 78.80, 30.77 83.10 10/01/2019 11:32:17 78.81, 30.85 83.11 2.10 18
5 10/03/2019 17:05:58 -78.82, 127.35 96.02 10/03/2019 17:06:02 -78.80, 127.34 96.04 2.89 4
6 10/05/2019 22:39:20 78.82,-135.88 84.87 10/05/2019 22:39:45 78.81,-136.02 84.85 3.07 25
7 10/05/2019 23:30:21 -78.81, 31.39 95.13 10/05/2019 23:29:13 -78.78, 31.45 95.18 4.17 68
8 10/08/2019 04:12:44 -78.84, -39.27 94.26 10/08/2019 04:13:29 -78.84, -39.29 94.24 0.65 45
9 10/08/2019 05:03:42 78.80, 128.24 85.75 10/08/2019 05:02:55 78.83, 128.30 85.76 3.52 47
10 10/10/2019 09:46:05 78.84, 57.42 86.61 10/10/2019 09:47:12 78.85, 57.32 86.63 2.15 67




NCC Satellite Simultaneous Nadir Overpasses (SNOs) Prediction Service
